4XAFF LLHA-LLMG

Flight info

Callsign 4XAFF
Flight time 0h 18m
Altitude 500
Route HASID LLRD ZMGID AFULA IRRIGATE FIELD SOUTH KIRYAT ATA
Aircraft AT8T/L-V/N

Departure

Time 2026-04-14 12:27
Airport Uri Michaeli Haifa International Airport (LLHA)

Arrival

Time 2026-04-14 12:45
Airport Megiddo Airport (LLMG)
Time Latitude Longitude Altitude Speed Heading
2026-04-14 12:16 32.81158 35.04176 14 ft 0 kts 340°
2026-04-14 12:22 32.81167 35.04173 14 ft 8 kts 359°
2026-04-14 12:23 32.81184 35.04179 14 ft 4 kts 93°
2026-04-14 12:23 32.81181 35.04191 14 ft 4 kts 145°
2026-04-14 12:23 32.81163 35.04206 14 ft 4 kts 129°
2026-04-14 12:23 32.81158 35.04226 13 ft 0 kts 77°
2026-04-14 12:24 32.81163 35.04251 13 ft 8 kts 73°
2026-04-14 12:24 32.81147 35.04297 12 ft 5 kts 138°
2026-04-14 12:24 32.81086 35.04337 12 ft 25 kts 161°
2026-04-14 12:24 32.80907 35.04411 12 ft 26 kts 161°
2026-04-14 12:25 32.80745 35.04479 10 ft 23 kts 160°
2026-04-14 12:25 32.80600 35.04540 9 ft 21 kts 160°
2026-04-14 12:25 32.80498 35.04587 6 ft 3 kts 31°
2026-04-14 12:25 32.80501 35.04590 6 ft 0 kts 356°
2026-04-14 12:26 32.80503 35.04590 6 ft 5 kts 351°
2026-04-14 12:26 32.80720 35.04504 10 ft 58 kts 351°
2026-04-14 12:26 32.81198 35.04288 63 ft 85 kts 339°
2026-04-14 12:26 32.81775 35.04024 323 ft 86 kts 339°
2026-04-14 12:27 32.82360 35.03828 497 ft 95 kts 15°
2026-04-14 12:27 32.82963 35.04370 457 ft 121 kts 58°
2026-04-14 12:27 32.82715 35.05310 566 ft 139 kts 140°
2026-04-14 12:27 32.82002 35.05854 1049 ft 114 kts 144°
2026-04-14 12:28 32.81295 35.06335 1151 ft 120 kts 150°
2026-04-14 12:28 32.80520 35.06832 1028 ft 134 kts 150°
2026-04-14 12:28 32.79685 35.07370 984 ft 138 kts 150°
2026-04-14 12:28 32.78770 35.07969 691 ft 152 kts 150°
2026-04-14 12:29 32.77938 35.08545 561 ft 130 kts 152°
2026-04-14 12:29 32.77562 35.09370 363 ft 110 kts 71°
2026-04-14 12:29 32.78074 35.09846 258 ft 98 kts
2026-04-14 12:29 32.78546 35.10303 200 ft 112 kts 98°
2026-04-14 12:30 32.78260 35.11233 49 ft 121 kts 102°
2026-04-14 12:30 32.78072 35.12187 77 ft 116 kts 105°
2026-04-14 12:30 32.77843 35.12929 443 ft 104 kts 139°
2026-04-14 12:30 32.77138 35.13040 581 ft 108 kts 246°
2026-04-14 12:31 32.77174 35.12135 456 ft 123 kts 292°
2026-04-14 12:31 32.77293 35.11095 437 ft 125 kts 281°
2026-04-14 12:31 32.77353 35.10084 419 ft 120 kts 282°
2026-04-14 12:31 32.77667 35.09304 484 ft 101 kts 332°
2026-04-14 12:32 32.78298 35.09213 359 ft 96 kts 25°
2026-04-14 12:32 32.78639 35.09971 202 ft 114 kts 88°
2026-04-14 12:32 32.78448 35.10922 47 ft 119 kts 114°
2026-04-14 12:32 32.78186 35.11788 89 ft 104 kts 109°
2026-04-14 12:33 32.77916 35.12618 233 ft 116 kts 130°
2026-04-14 12:33 32.77190 35.12766 409 ft 117 kts 225°
2026-04-14 12:33 32.77125 35.11928 451 ft 118 kts 302°
2026-04-14 12:33 32.77466 35.10978 474 ft 124 kts 292°
2026-04-14 12:34 32.77582 35.09980 522 ft 122 kts 283°
2026-04-14 12:34 32.77765 35.09032 519 ft 117 kts 324°
2026-04-14 12:34 32.78451 35.09195 468 ft 125 kts 55°
2026-04-14 12:34 32.78357 35.10324 138 ft 145 kts 107°
2026-04-14 12:35 32.78066 35.11377 53 ft 120 kts 110°
2026-04-14 12:35 32.77812 35.12297 175 ft 112 kts 122°
2026-04-14 12:35 32.77163 35.12528 404 ft 119 kts 228°
2026-04-14 12:35 32.77166 35.11638 358 ft 123 kts 298°
2026-04-14 12:36 32.77506 35.10691 451 ft 124 kts 306°
2026-04-14 12:36 32.77577 35.09609 372 ft 133 kts 280°
2026-04-14 12:36 32.78132 35.09155 389 ft 122 kts 32°
2026-04-14 12:36 32.78383 35.10149 108 ft 123 kts 87°
2026-04-14 12:37 32.78149 35.11102 51 ft 116 kts 121°
2026-04-14 12:37 32.78002 35.11986 221 ft 108 kts 115°
2026-04-14 12:37 32.77331 35.12176 294 ft 122 kts 236°
2026-04-14 12:37 32.76830 35.11338 327 ft 134 kts 242°
2026-04-14 12:38 32.75869 35.09435 666 ft 138 kts 243°
2026-04-14 12:38 32.75374 35.08468 727 ft 135 kts 245°
2026-04-14 12:38 32.74826 35.07582 840 ft 121 kts 186°
2026-04-14 12:39 32.74102 35.08096 771 ft 139 kts 139°
2026-04-14 12:39 32.73368 35.08869 816 ft 143 kts 137°
2026-04-14 12:39 32.72569 35.09551 1012 ft 144 kts 161°
2026-04-14 12:39 32.71618 35.09930 1154 ft 141 kts 160°
2026-04-14 12:40 32.70888 35.10514 1459 ft 120 kts 122°
2026-04-14 12:40 32.70469 35.11372 1358 ft 121 kts 116°
2026-04-14 12:40 32.70085 35.12232 1412 ft 115 kts 122°
2026-04-14 12:40 32.69659 35.13051 1300 ft 122 kts 128°
2026-04-14 12:41 32.69179 35.13770 1511 ft 105 kts 125°
2026-04-14 12:41 32.68706 35.14487 1526 ft 117 kts 125°
2026-04-14 12:41 32.68197 35.15283 1600 ft 124 kts 127°
2026-04-14 12:41 32.67664 35.16077 1777 ft 117 kts 127°
2026-04-14 12:42 32.67168 35.16828 1751 ft 119 kts 126°
2026-04-14 12:42 32.66617 35.17601 1745 ft 123 kts 129°
2026-04-14 12:42 32.66068 35.18380 1765 ft 124 kts 127°
2026-04-14 12:42 32.65343 35.18884 1857 ft 120 kts 160°
2026-04-14 12:43 32.64515 35.19153 1827 ft 130 kts 163°
2026-04-14 12:43 32.63606 35.19402 1807 ft 136 kts 179°
2026-04-14 12:43 32.62703 35.19147 1829 ft 134 kts 197°
2026-04-14 12:43 32.61838 35.18780 1645 ft 133 kts 194°
2026-04-14 12:44 32.60984 35.18480 1498 ft 102 kts 176°
2026-04-14 12:44 32.60381 35.18579 1197 ft 91 kts 163°
2026-04-14 12:44 32.59908 35.19035 912 ft 93 kts 119°
2026-04-14 12:45 32.59763 35.20438 395 ft 83 kts 87°
2026-04-14 12:45 32.59757 35.21133 274 ft 85 kts 92°
2026-04-14 12:45 32.59748 35.21817 201 ft 82 kts 95°
2026-04-14 12:45 32.59732 35.22386 183 ft 41 kts 86°
2026-04-14 12:46 32.59727 35.22480 183 ft 11 kts 88°
2026-04-14 12:46 32.59720 35.22668 183 ft 37 kts 94°
2026-04-14 12:46 32.59714 35.23018 183 ft 45 kts 91°
2026-04-14 12:46 32.59698 35.23328 179 ft 28 kts 110°
2026-04-14 12:47 32.59762 35.23378 179 ft 7 kts 357°
2026-04-14 12:47 32.59784 35.23388 180 ft 2 kts 58°
2026-04-14 12:47 32.59788 35.23394 180 ft 2 kts 59°
2026-04-14 12:47 32.59792 35.23401 180 ft 3 kts 65°
2026-04-14 12:48 32.59789 35.23423 179 ft 0 kts 154°
2026-04-14 12:48 32.59783 35.23426 179 ft 2 kts 144°
2026-04-14 12:48 32.59788 35.23410 179 ft 9 kts 213°
2026-04-14 12:49 32.59716 35.23424 178 ft 19 kts 113°
2026-04-14 12:49 32.59708 35.23658 174 ft 44 kts 90°
2026-04-14 12:49 32.59703 35.23934 173 ft 15 kts 92°
2026-04-14 12:49 32.59696 35.23922 173 ft 14 kts 273°
2026-04-14 12:50 32.59699 35.23816 174 ft 16 kts 272°
2026-04-14 12:50 32.59697 35.22431 439 ft 113 kts 274°
2026-04-14 12:50 32.59619 35.21519 990 ft 116 kts 268°
2026-04-14 12:51 32.59540 35.20528 1338 ft 130 kts 276°
2026-04-14 12:51 32.59756 35.19537 1696 ft 126 kts 312°
2026-04-14 12:51 32.60431 35.18937 1904 ft 120 kts 339°
2026-04-14 12:51 32.61244 35.18842 2126 ft 112 kts 16°
2026-04-14 12:52 32.61885 35.19153 2142 ft 95 kts 28°
2026-04-14 12:52 32.62489 35.19445 1992 ft 103 kts 11°
2026-04-14 12:52 32.63277 35.19200 2104 ft 128 kts 346°
2026-04-14 12:52 32.64095 35.18715 2419 ft 126 kts 342°
2026-04-14 12:53 32.64909 35.18214 2684 ft 135 kts 341°
2026-04-14 12:53 32.65680 35.17649 2935 ft 140 kts 313°
2026-04-14 12:53 32.66177 35.16602 3099 ft 148 kts 300°
2026-04-14 12:53 32.66694 35.15647 3351 ft 126 kts 322°
2026-04-14 12:54 32.67356 35.15006 3393 ft 121 kts 328°
2026-04-14 12:54 32.68007 35.14367 3390 ft 119 kts 327°
2026-04-14 12:54 32.68600 35.13589 3127 ft 132 kts 318°
2026-04-14 12:54 32.69132 35.12735 3080 ft 124 kts 310°
2026-04-14 12:55 32.69573 35.11944 2934 ft 111 kts 310°
2026-04-14 12:55 32.70079 35.11163 2891 ft 132 kts 321°
2026-04-14 12:55 32.70861 35.10440 2797 ft 154 kts 325°
2026-04-14 12:55 32.71647 35.09489 2735 ft 160 kts 322°
2026-04-14 12:56 32.72338 35.08691 2606 ft 125 kts 317°
2026-04-14 12:56 32.72961 35.08105 2392 ft 113 kts 339°
2026-04-14 12:56 32.73648 35.07623 2090 ft 115 kts 337°
2026-04-14 12:56 32.74343 35.07491 1881 ft 92 kts 35°
2026-04-14 12:57 32.74978 35.07816 1549 ft 112 kts 25°
2026-04-14 12:57 32.75679 35.08142 1536 ft 98 kts 37°
2026-04-14 12:57 32.76107 35.08309 1395 ft 100 kts 24°
2026-04-14 12:57 32.76956 35.08645 1292 ft 95 kts 26°
2026-04-14 12:58 32.77593 35.08920 1089 ft 100 kts 25°
2026-04-14 12:58 32.78019 35.09178 937 ft 104 kts 34°
2026-04-14 12:58 32.78497 35.09827 624 ft 108 kts 65°
2026-04-14 12:58 32.78329 35.10713 90 ft 119 kts 118°
2026-04-14 12:59 32.78045 35.11488 56 ft 88 kts 100°
2026-04-14 12:59 32.77841 35.12109 94 ft 88 kts 108°
2026-04-14 12:59 32.77449 35.12701 386 ft 118 kts 181°
2026-04-14 12:59 32.77289 35.12700 404 ft 124 kts 201°